Showing default

COSMOS 1461, 14064

Orbit data source: Space-Track

COSMOS 1461, 14064 is a payload satellite owned by VMF (CIS) in LEO that was launched on Sat, 07 May 1983 UTC via a TSIKLON-2 launch vehicle from the Tyuratam Missile And Space Complex (TTMTR). Payload-class satellites include a variety of spacecraft equipped with specific instruments for various scientific and technological missions. These include communications satellites like Starlink; space stations such as the ISS; scientific satellites like the Hubble; Earth observation satellites from companies like Planet Labs, Umbra, and HawkEye 360; GPS; miniature CubeSats for education and research; and military/defense satellites.

Loading next visibility...
Identifier
14064, 1983-044A
Orbit
LEO
Last TLE update
15 hours ago
Origin
Manufacturer
TSSKB/KOMET
Mission
Defense Sigint
Bus & Motor
US-P, Unknown motor
Mass
3,300 kg wet, ~3,000 kg dry
Launch date (UTC)
1983-05-07 (42 years ago)
Launch vehicle
TSIKLON-2
Launch site
Tyuratam Missile And Space Complex (TTMTR)
Object type
Payload
Rocket body
Debris
Shape & HBR
Cyl, 10 m
Radar Cross Section
10.874 m², Large (>1 m²)

Expand to show TLE details & history

TLE from 15 hours ago
0 COSMOS 1461
1 14064U 83044A   25181.92799412  .00012188  00000-0  47630-3 0  9997
2 14064  64.9925 122.9957 0070341 304.9619  54.4918 15.23892665163361
Epoch: 2025-06-30T22:16Z
TLE epoch observation values (Epoch: 2025-06-30T22:16:18.691Z)
Latitude
-0.00006°
Longitude
-130.31298°
Altitude
468.315 km
Speed
7.648 km/s
True Right ascension
08h 11m 58s
True Declination
0° 00' 00"
Sunlit
Object was in daylight at epoch
Visualization orbit readout
Latitude
-57.34409°
Longitude
93.99492°
Altitude
488.502 km
Speed
7.635 km/s
Apparent Right ascension
16h 23m 03s
Apparent Declination
-75° 31' 30"
Sunlit
Object is in full shadow
Visualization observer readout
Local Sidereal Time
01:11:12
Azimuth
196.291° SSW
Elevation
-48.562°
Doppler factor
1
Orbital elements
Apogee altitude
540.96 km
Perigee altitude
444.301 km
Semi-major axis
6,870.767 km
Eccentricity
0.00703
Inclination
64.9925°
RAAN
122.9957°
Arg. of periapsis
304.9619°
True anomaly
Unknown
Mean anomaly
54.4918°
Eccentric anomaly
Unknown
Mean motion
3.81097 °/min
Orbital period
94.46 mins
BSTAR
0.0004763
Loading maneuver chart data...
Loading SW <> Apogee altitude chart data...

COSMOS 1461 Visibility forecast

Observer location: undefined°, undefined°

Span
Click to sort rows by Start time (UTC) header in descending order
Start Az.
Max El. time (UTC)
Max El. Az.
Max El.
End time (UTC)
End Az.
6 mins2025-07-01 22:03:14.646Z226.496° WSW2025-07-01 22:06:14.646Z322.656° NNW40.238°2025-07-01 22:09:14.646Z22.555° NE
6 mins2025-07-02 06:19:14.646Z347.057° N2025-07-02 06:21:14.646Z46.099° ENE39.058°2025-07-02 06:25:14.646Z134.098° SE
|